,,PA_Meas_PMT16A,,PR_Meas_QMR101_102,,RH_Meas_QMH101,,SR_Meas_QMS101,,TA_Meas_QMH101,,GenWind,,GenWind,
time,status,PA,status,PR,status,RH,status,SR,status,TA,status,DirAvg,status,SpdAvg,
2011-08-13, 00:00:04,VALID,915.009,VALID,0,VALID,87.128,VALID,0,VALID,21.6518,VALID,152,VALID,0.459375,
2011-08-13, 00:01:04,VALID,915.027,VALID,0,VALID,87.8446,VALID,0,VALID,21.5932,VALID,152,VALID,0.321875,
2011-08-13, 00:02:04,VALID,915.016,VALID,0,VALID,88.424,VALID,0,VALID,21.5331,VALID,152,VALID,0.586719,
2011-08-13, 00:03:04,VALID,915.013,VALID,0,VALID,87.959,VALID,0,VALID,21.4355,VALID,152,VALID,0.638281,
2011-08-13, 00:04:04,VALID,915.045,VALID,0,VALID,88.6298,VALID,0.107441,VALID,21.2974,VALID,152,VALID,0.388281,
2011-08-13, 00:05:04,VALID,915.05,VALID,0,VALID,89.5142,VALID,0,VALID,21.2405,VALID,152,VALID,0.248828,
2011-08-13, 00:06:04,VALID,915.026,VALID,0,VALID,90.2079,VALID,0,VALID,21.1819,VALID,152,VALID,0.736719,
2011-08-13, 00:07:04,VALID,915.019,VALID,0,VALID,90.4747,VALID,0,VALID,21.1836,VALID,152,VALID,0.0398437,
2011-08-13, 00:08:04,VALID,915.002,VALID,0,VALID,90.2231,VALID,0,VALID,21.125,VALID,152,VALID,0,
2011-08-13, 00:09:04,VALID,914.997,VALID,0,VALID,90.8254,VALID,0,VALID,21.0649,VALID,152,VALID,0.178906,
2011-08-13, 00:10:04,VALID,914.956,VALID,0,VALID,91.0846,VALID,0,VALID,21.047,VALID,152,VALID,0,
2011-08-13, 00:11:04,VALID,914.931,VALID,0,VALID,90.5967,VALID,0,VALID,20.9674,VALID,152,VALID,0.00117188,
2011-08-13, 00:12:04,VALID,914.889,VALID,0,VALID,90.8483,VALID,0,VALID,20.8714,VALID,152,VALID,0.519922,
2011-08-13, 00:13:04,VALID,914.871,VALID,0,VALID,92.3043,VALID,0,VALID,20.8714,VALID,152,VALID,0.913281,
2011-08-13, 00:14:04,VALID,914.811,VALID,0,VALID,92.6474,VALID,0.107441,VALID,20.8699,VALID,152,VALID,0.676172,
2011-08-13, 00:15:04,VALID,914.781,VALID,0,VALID,92.6016,VALID,0,VALID,20.9105,VALID,152,VALID,0.831641,
2011-08-13, 00:16:04,VALID,914.747,VALID,0,VALID,92.4568,VALID,0,VALID,20.93,VALID,152,VALID,1.20859,
2011-08-13, 00:17:04,VALID,914.718,VALID,0,VALID,92.1823,VALID,0,VALID,20.9674,VALID,152,VALID,1.21133,
2011-08-13, 00:18:04,VALID,914.668,VALID,0,VALID,91.9231,VALID,0.107441,VALID,21.0275,VALID,152,VALID,1.04141,
2011-08-13, 00:19:04,VALID,914.606,VALID,0,VALID,91.6945,VALID,0,VALID,21.0665,VALID,152,VALID,1.10469,
2011-08-13, 00:20:04,VALID,914.546,VALID,0,VALID,91.7173,VALID,0,VALID,21.1234,VALID,152,VALID,0.940625,
2011-08-13, 00:21:04,VALID,914.55,VALID,0,VALID,91.298,VALID,0,VALID,21.1624,VALID,152,VALID,1.06289,
2011-08-13, 00:22:04,VALID,914.491,VALID,0,VALID,91.0846,VALID,0,VALID,21.1429,VALID,136,VALID,0.928516,
2011-08-13, 00:23:04,VALID,914.484,VALID,0,VALID,91.0388,VALID,0.107441,VALID,21.1836,VALID,152,VALID,1.4168,
2011-08-13, 00:24:04,VALID,914.45,VALID,0,VALID,90.8254,VALID,0,VALID,21.1819,VALID,161,VALID,0.838672,
2011-08-13, 00:25:04,VALID,914.472,VALID,0,VALID,90.9473,VALID,0,VALID,21.2031,VALID,179,VALID,1.21055,
2011-08-13, 00:26:04,VALID,914.467,VALID,0,VALID,91.1608,VALID,0,VALID,21.2226,VALID,161,VALID,1.55352,
2011-08-13, 00:27:04,VALID,914.513,VALID,0,VALID,91.1761,VALID,0,VALID,21.2226,VALID,170,VALID,1.18789,
2011-08-13, 00:28:04,VALID,914.539,VALID,0,VALID,90.9626,VALID,0,VALID,21.221,VALID,135,VALID,0.749219,
2011-08-13, 00:29:04,VALID,914.573,VALID,0,VALID,91.0388,VALID,0,VALID,21.2226,VALID,137,VALID,0.709375,
2011-08-13, 00:30:04,VALID,914.568,VALID,0,VALID,91.1913,VALID,0.107441,VALID,21.2015,VALID,127,VALID,1.13398,
2011-08-13, 00:31:04,VALID,914.563,VALID,0,VALID,91.1989,VALID,0.107441,VALID,21.2226,VALID,112,VALID,0.74375,
2011-08-13, 00:32:04,VALID,914.582,VALID,0,VALID,91.237,VALID,0,VALID,21.1819,VALID,118,VALID,0.860547,
2011-08-13, 00:33:04,VALID,914.583,VALID,0,VALID,91.3514,VALID,0,VALID,21.2015,VALID,119,VALID,0.735547,
2011-08-13, 00:34:04,VALID,914.589,VALID,0,VALID,90.7949,VALID,0,VALID,21.1624,VALID,119,VALID,0.667188,
2011-08-13, 00:35:04,VALID,914.586,VALID,0,VALID,91.3819,VALID,0,VALID,21.1445,VALID,119,VALID,0.941797,
2011-08-13, 00:36:04,VALID,914.629,VALID,0,VALID,91.6106,VALID,0,VALID,21.086,VALID,120,VALID,0.812109,
2011-08-13, 00:37:04,VALID,914.672,VALID,0,VALID,91.6563,VALID,0,VALID,21.0275,VALID,120,VALID,0.988672,
2011-08-13, 00:38:04,VALID,914.663,VALID,0,VALID,92.0299,VALID,0.107441,VALID,20.969,VALID,119,VALID,0.979688,
2011-08-13, 00:39:04,VALID,914.667,VALID,0,VALID,92.472,VALID,0,VALID,20.9105,VALID,119,VALID,0.34375,
2011-08-13, 00:40:04,VALID,914.687,VALID,0,VALID,92.7084,VALID,0,VALID,20.891,VALID,120,VALID,0.513672,
2011-08-13, 00:41:04,VALID,914.654,VALID,0,VALID,92.9447,VALID,0,VALID,20.8519,VALID,119,VALID,0.00117188,
2011-08-13, 00:42:04,VALID,914.681,VALID,0,VALID,93.12,VALID,0,VALID,20.8519,VALID,119,VALID,0.792578,
2011-08-13, 00:43:04,VALID,914.69,VALID,0,VALID,93.3182,VALID,0,VALID,20.8519,VALID,119,VALID,0.805078,
2011-08-13, 00:44:04,VALID,914.678,VALID,0,VALID,93.364,VALID,0,VALID,20.891,VALID,120,VALID,0.732031,
2011-08-13, 00:45:04,VALID,914.703,VALID,0,VALID,93.2496,VALID,0,VALID,20.8894,VALID,218,VALID,0.799609,
2011-08-13, 00:46:04,VALID,914.708,VALID,0,VALID,93.2039,VALID,0,VALID,20.891,VALID,257,VALID,0.0617188,
2011-08-13, 00:47:04,VALID,914.705,VALID,0,VALID,93.242,VALID,0,VALID,20.8925,VALID,257,VALID,0.435547,
2011-08-13, 00:48:04,VALID,914.699,VALID,0,VALID,93.3487,VALID,0,VALID,20.8519,VALID,257,VALID,0.427344,
2011-08-13, 00:49:04,VALID,914.666,VALID,0,VALID,93.5469,VALID,0,VALID,20.8324,VALID,257,VALID,0.900781,
2011-08-13, 00:50:04,VALID,914.64,VALID,0,VALID,93.7833,VALID,0,VALID,20.7739,VALID,257,VALID,0.803516,
2011-08-13, 00:51:04,VALID,914.656,VALID,0,VALID,94.0043,VALID,0,VALID,20.7349,VALID,257,VALID,0.633594,
2011-08-13, 00:52:04,VALID,914.65,VALID,0,VALID,94.2254,VALID,0,VALID,20.6959,VALID,257,VALID,0.648047,
2011-08-13, 00:53:04,VALID,914.674,VALID,0,VALID,94.4236,VALID,0,VALID,20.6569,VALID,257,VALID,0.401563,
2011-08-13, 00:54:04,VALID,914.658,VALID,0,VALID,94.6218,VALID,0,VALID,20.678,VALID,257,VALID,0.6375,
2011-08-13, 00:55:04,VALID,914.691,VALID,0,VALID,94.8124,VALID,0,VALID,20.6569,VALID,257,VALID,0.710156,
2011-08-13, 00:56:04,VALID,914.736,VALID,0,VALID,94.9115,VALID,0,VALID,20.6374,VALID,257,VALID,0.545703,
2011-08-13, 00:57:04,VALID,914.748,VALID,0,VALID,94.9725,VALID,0,VALID,20.5968,VALID,257,VALID,0.730469,
2011-08-13, 00:58:04,VALID,914.789,VALID,0,VALID,95.0106,VALID,0,VALID,20.5999,VALID,257,VALID,0.585156,
2011-08-13, 00:59:04,VALID,914.81,VALID,0,VALID,95.1174,VALID,0,VALID,20.5789,VALID,257,VALID,0.603906,
2011-08-13, 01:00:04,VALID,914.813,VALID,0,VALID,95.2165,VALID,0,VALID,20.5789,VALID,257,VALID,0.547266,
2011-08-13, 01:01:04,VALID,914.781,VALID,0,VALID,95.2927,VALID,0,VALID,20.5984,VALID,256,VALID,0.448438,
2011-08-13, 01:02:04,VALID,914.78,VALID,0,VALID,95.2622,VALID,0,VALID,20.5789,VALID,256,VALID,0.597656,
2011-08-13, 01:03:04,VALID,914.71,VALID,0,VALID,95.3003,VALID,0,VALID,20.6179,VALID,256,VALID,0.932422,
2011-08-13, 01:04:04,VALID,914.726,VALID,0,VALID,95.2622,VALID,0,VALID,20.6764,VALID,250,VALID,0.908984,
2011-08-13, 01:05:04,VALID,914.715,VALID,0,VALID,95.2088,VALID,0,VALID,20.7154,VALID,247,VALID,1.59961,
2011-08-13, 01:06:04,VALID,914.693,VALID,0,VALID,95.1402,VALID,0,VALID,20.7349,VALID,251,VALID,1.10742,
2011-08-13, 01:07:04,VALID,914.733,VALID,0,VALID,95.1174,VALID,0,VALID,20.7349,VALID,251,VALID,0.905469,
2011-08-13, 01:08:05,VALID,914.743,VALID,0,VALID,95.1097,VALID,0,VALID,20.7349,VALID,251,VALID,0.601172,
2011-08-13, 01:09:05,VALID,914.789,VALID,0,VALID,95.1097,VALID,0,VALID,20.7154,VALID,251,VALID,0.537891,
2011-08-13, 01:10:05,VALID,914.795,VALID,0,VALID,95.1631,VALID,0,VALID,20.7154,VALID,251,VALID,0.100391,
2011-08-13, 01:11:05,VALID,914.8,VALID,0,VALID,95.2546,VALID,0,VALID,20.7349,VALID,254,VALID,0.620313,
2011-08-13, 01:12:05,VALID,914.805,VALID,0,VALID,95.3003,VALID,0,VALID,20.7154,VALID,328,VALID,0.658984,
2011-08-13, 01:13:05,VALID,914.861,VALID,0,VALID,95.3461,VALID,0,VALID,20.7365,VALID,7,VALID,0.789844,
2011-08-13, 01:14:05,VALID,914.884,VALID,0,VALID,95.3079,VALID,0,VALID,20.7154,VALID,24,VALID,0.922266,
2011-08-13, 01:15:05,VALID,914.892,VALID,0,VALID,95.2622,VALID,0,VALID,20.6959,VALID,24,VALID,1.21328,
2011-08-13, 01:16:05,VALID,914.87,VALID,0,VALID,95.3156,VALID,0,VALID,20.6764,VALID,24,VALID,0.898828,
2011-08-13, 01:17:05,VALID,914.868,VALID,0,VALID,95.3613,VALID,0,VALID,20.6569,VALID,24,VALID,0.560938,
2011-08-13, 01:18:05,VALID,914.809,VALID,0,VALID,95.4147,VALID,0,VALID,20.6569,VALID,24,VALID,0.171094,
2011-08-13, 01:19:05,VALID,914.815,VALID,0,VALID,95.5062,VALID,0,VALID,20.6569,VALID,24,VALID,0.849609,
2011-08-13, 01:20:05,VALID,914.771,VALID,0,VALID,95.5671,VALID,0,VALID,20.6959,VALID,24,VALID,0.339453,
2011-08-13, 01:21:05,VALID,914.756,VALID,0,VALID,95.59,VALID,0,VALID,20.6959,VALID,24,VALID,0.748438,
2011-08-13, 01:22:05,VALID,914.796,VALID,0,VALID,95.6129,VALID,0,VALID,20.7154,VALID,24,VALID,1.17773,
2011-08-13, 01:23:05,VALID,914.802,VALID,0,VALID,95.6586,VALID,0,VALID,20.7154,VALID,24,VALID,0.669141,
2011-08-13, 01:24:05,VALID,914.793,VALID,0,VALID,95.6434,VALID,0,VALID,20.6959,VALID,24,VALID,0.711719,
2011-08-13, 01:25:05,VALID,914.787,VALID,0,VALID,95.6586,VALID,0,VALID,20.6764,VALID,24,VALID,0.576953,
2011-08-13, 01:26:05,VALID,914.747,VALID,0,VALID,95.7044,VALID,0,VALID,20.6959,VALID,24,VALID,0.380469,
2011-08-13, 01:27:05,VALID,914.745,VALID,0,VALID,95.7349,VALID,0,VALID,20.6959,VALID,24,VALID,0.525391,
2011-08-13, 01:28:05,VALID,914.77,VALID,0,VALID,95.7806,VALID,0,VALID,20.717,VALID,24,VALID,0.590234,
2011-08-13, 01:29:05,VALID,914.758,VALID,0,VALID,95.7882,VALID,0,VALID,20.6764,VALID,24,VALID,1.1918,
2011-08-13, 01:30:05,VALID,914.764,VALID,0,VALID,95.8263,VALID,0,VALID,20.6959,VALID,24,VALID,1.19883,
2011-08-13, 01:31:05,VALID,914.799,VALID,0,VALID,95.8721,VALID,0,VALID,20.6764,VALID,24,VALID,1.05234,
2011-08-13, 01:32:05,VALID,914.765,VALID,0,VALID,95.9178,VALID,0,VALID,20.6959,VALID,24,VALID,1.02813,
2011-08-13, 01:33:05,VALID,914.748,VALID,0,VALID,95.9788,VALID,0,VALID,20.7365,VALID,24,VALID,0.938281,
2011-08-13, 01:34:05,VALID,914.776,VALID,0,VALID,96.0245,VALID,0,VALID,20.7365,VALID,24,VALID,0.718359,
2011-08-13, 01:35:05,VALID,914.733,VALID,0,VALID,96.0093,VALID,0,VALID,20.7349,VALID,15,VALID,1.14727,
2011-08-13, 01:36:05,VALID,914.738,VALID,0,VALID,96.055,VALID,0,VALID,20.7349,VALID,10,VALID,0.685156,
2011-08-13, 01:37:05,VALID,914.703,VALID,0,VALID,96.0017,VALID,0,VALID,20.7365,VALID,10,VALID,1.01641,
2011-08-13, 01:38:05,VALID,914.681,VALID,0,VALID,95.9864,VALID,0,VALID,20.6959,VALID,10,VALID,0.721875,
2011-08-13, 01:39:05,VALID,914.647,VALID,0,VALID,96.0017,VALID,0,VALID,20.6764,VALID,10,VALID,0.780078,
2011-08-13, 01:40:05,VALID,914.611,VALID,0,VALID,95.9407,VALID,0,VALID,20.6374,VALID,10,VALID,0.641016,
2011-08-13, 01:41:05,VALID,914.621,VALID,0,VALID,95.9712,VALID,0,VALID,20.6179,VALID,10,VALID,0.845703,
2011-08-13, 01:42:05,VALID,914.584,VALID,0,VALID,96.0169,VALID,0,VALID,20.5984,VALID,10,VALID,1.03047,
2011-08-13, 01:43:05,VALID,914.58,VALID,0,VALID,96.0779,VALID,0,VALID,20.5984,VALID,10,VALID,1.00039,
2011-08-13, 01:44:05,VALID,914.56,VALID,0,VALID,96.1084,VALID,0,VALID,20.5999,VALID,10,VALID,1.23164,
2011-08-13, 01:45:05,VALID,914.569,VALID,0,VALID,96.1389,VALID,0,VALID,20.5789,VALID,10,VALID,0.772266,
2011-08-13, 01:46:05,VALID,914.579,VALID,0,VALID,96.177,VALID,0,VALID,20.5594,VALID,10,VALID,1.04922,
2011-08-13, 01:47:05,VALID,914.562,VALID,0,VALID,96.177,VALID,0,VALID,20.5383,VALID,10,VALID,1.24648,
2011-08-13, 01:48:05,VALID,914.59,VALID,0,VALID,96.2151,VALID,0,VALID,20.5399,VALID,27,VALID,1.40391,
2011-08-13, 01:49:05,VALID,914.592,VALID,0,VALID,96.2837,VALID,0,VALID,20.5594,VALID,27,VALID,1.09063,
2011-08-13, 01:50:05,VALID,914.61,VALID,0,VALID,96.3142,VALID,0,VALID,20.5399,VALID,27,VALID,1.49805,
2011-08-13, 01:51:05,VALID,914.591,VALID,0,VALID,96.3371,VALID,0,VALID,20.5399,VALID,27,VALID,1.55195,
2011-08-13, 01:52:05,VALID,914.594,VALID,0,VALID,96.3905,VALID,0,VALID,20.5609,VALID,73,VALID,0.941016,
2011-08-13, 01:53:05,VALID,914.57,VALID,0,VALID,96.4515,VALID,0,VALID,20.5399,VALID,63,VALID,0.828906,
2011-08-13, 01:54:05,VALID,914.53,VALID,0,VALID,96.4362,VALID,0,VALID,20.5609,VALID,62,VALID,1.20195,
2011-08-13, 01:55:05,VALID,914.54,VALID,0,VALID,96.4819,VALID,0,VALID,20.5399,VALID,18,VALID,1.43008,
2011-08-13, 01:56:05,VALID,914.564,VALID,0,VALID,96.4972,VALID,0,VALID,20.5399,VALID,18,VALID,1.27422,
2011-08-13, 01:57:05,VALID,914.544,VALID,0,VALID,96.5048,VALID,0,VALID,20.5399,VALID,18,VALID,1.25586,
2011-08-13, 01:58:05,VALID,914.56,VALID,0,VALID,96.5506,VALID,0,VALID,20.5399,VALID,18,VALID,0.742578,
2011-08-13, 01:59:05,VALID,914.556,VALID,0,VALID,96.6039,VALID,0,VALID,20.5789,VALID,18,VALID,0.594531,
2011-08-13, 02:00:05,VALID,914.543,VALID,0,VALID,96.5811,VALID,0,VALID,20.5789,VALID,18,VALID,0.684375,
2011-08-13, 02:01:05,VALID,914.574,VALID,0,VALID,96.6192,VALID,0,VALID,20.5984,VALID,18,VALID,0.817969,
2011-08-13, 02:02:05,VALID,914.519,VALID,0,VALID,96.5811,VALID,0,VALID,20.5804,VALID,18,VALID,0.608984,
2011-08-13, 02:03:05,VALID,914.522,VALID,0,VALID,96.6192,VALID,0,VALID,20.5578,VALID,18,VALID,0.757813,
2011-08-13, 02:04:05,VALID,914.535,VALID,0,VALID,96.5887,VALID,0,VALID,20.5999,VALID,18,VALID,0.540234,
2011-08-13, 02:05:05,VALID,914.542,VALID,0,VALID,96.6192,VALID,0,VALID,20.5594,VALID,18,VALID,0.467187,
2011-08-13, 02:06:05,VALID,914.547,VALID,0,VALID,96.6573,VALID,0,VALID,20.5789,VALID,18,VALID,0.275781,
2011-08-13, 02:07:05,VALID,914.572,VALID,0,VALID,96.6725,VALID,0,VALID,20.5789,VALID,18,VALID,0.0113281,
2011-08-13, 02:08:05,VALID,914.503,VALID,0,VALID,96.6344,VALID,0,VALID,20.5789,VALID,18,VALID,0.0820313,
2011-08-13, 02:09:05,VALID,914.515,VALID,0,VALID,96.6878,VALID,0.107441,VALID,20.5984,VALID,18,VALID,0.169141,
2011-08-13, 02:10:05,VALID,914.492,VALID,0,VALID,96.7183,VALID,0,VALID,20.6374,VALID,18,VALID,0.342578,
2011-08-13, 02:11:05,VALID,914.461,VALID,0,VALID,96.6192,VALID,0,VALID,20.6179,VALID,18,VALID,0.547656,
2011-08-13, 02:12:05,VALID,914.44,VALID,0,VALID,96.6344,VALID,0,VALID,20.6179,VALID,18,VALID,0.596875,
2011-08-13, 02:13:05,VALID,914.417,VALID,0,VALID,96.6268,VALID,0,VALID,20.6179,VALID,18,VALID,0.764453,
2011-08-13, 02:14:05,VALID,914.354,VALID,0,VALID,96.6725,VALID,0,VALID,20.5968,VALID,18,VALID,0.739844,
2011-08-13, 02:15:05,VALID,914.304,VALID,0,VALID,96.642,VALID,0,VALID,20.6179,VALID,18,VALID,0.671875,
2011-08-13, 02:16:05,VALID,914.243,VALID,0,VALID,96.6268,VALID,0.107441,VALID,20.5968,VALID,18,VALID,0.969531,
2011-08-13, 02:17:05,VALID,914.218,VALID,0,VALID,96.6802,VALID,0,VALID,20.6179,VALID,55,VALID,1.32422,
2011-08-13, 02:18:05,VALID,914.169,VALID,0,VALID,96.6039,VALID,0,VALID,20.5984,VALID,55,VALID,1.40117,
2011-08-13, 02:19:05,VALID,914.165,VALID,0,VALID,96.6268,VALID,0,VALID,20.6179,VALID,39,VALID,1.33203,
2011-08-13, 02:20:05,VALID,914.15,VALID,0,VALID,96.5887,VALID,0,VALID,20.5984,VALID,50,VALID,1.68242,
2011-08-13, 02:21:05,VALID,914.105,VALID,0,VALID,96.6039,VALID,0,VALID,20.6179,VALID,50,VALID,1.33633,
2011-08-13, 02:22:05,VALID,914.111,VALID,0,VALID,96.6039,VALID,0,VALID,20.639,VALID,50,VALID,1.45625,
2011-08-13, 02:23:05,VALID,914.13,VALID,0,VALID,96.5811,VALID,0,VALID,20.6179,VALID,50,VALID,1.57773,
2011-08-13, 02:24:05,VALID,914.116,VALID,0,VALID,96.6192,VALID,0,VALID,20.6374,VALID,41,VALID,1.30742,
2011-08-13, 02:25:05,VALID,914.083,VALID,0,VALID,96.5734,VALID,0,VALID,20.6179,VALID,41,VALID,1.20859,
2011-08-13, 02:26:05,VALID,914.049,VALID,0,VALID,96.5963,VALID,0.107441,VALID,20.6374,VALID,39,VALID,1.05703,
2011-08-13, 02:27:05,VALID,914.068,VALID,0,VALID,96.5353,VALID,0,VALID,20.6374,VALID,360,VALID,0.817187,
2011-08-13, 02:28:05,VALID,914.045,VALID,0,VALID,96.5811,VALID,0,VALID,20.6764,VALID,360,VALID,0.74375,
2011-08-13, 02:29:05,VALID,914.039,VALID,0,VALID,96.4591,VALID,0,VALID,20.6764,VALID,360,VALID,1.02188,
2011-08-13, 02:30:05,VALID,914.023,VALID,0,VALID,96.4819,VALID,0,VALID,20.6764,VALID,28,VALID,0.817578,
2011-08-13, 02:31:05,VALID,914.014,VALID,0,VALID,96.4591,VALID,0,VALID,20.717,VALID,28,VALID,0.730859,
2011-08-13, 02:32:05,VALID,913.961,VALID,0,VALID,96.4362,VALID,0.107441,VALID,20.6553,VALID,28,VALID,0.558203,
2011-08-13, 02:33:05,VALID,913.964,VALID,0,VALID,96.4362,VALID,0,VALID,20.7154,VALID,28,VALID,0.8,
2011-08-13, 02:34:05,VALID,913.921,VALID,0,VALID,96.4362,VALID,0.107441,VALID,20.7349,VALID,28,VALID,0.261719,
2011-08-13, 02:35:05,VALID,913.896,VALID,0,VALID,96.4438,VALID,0,VALID,20.7739,VALID,28,VALID,0.382031,
2011-08-13, 02:36:05,VALID,913.882,VALID,0,VALID,96.3524,VALID,0,VALID,20.7544,VALID,28,VALID,0.132422,
2011-08-13, 02:37:05,VALID,913.817,VALID,0,VALID,96.2914,VALID,0,VALID,20.7544,VALID,28,VALID,0.117969,
2011-08-13, 02:38:05,VALID,913.759,VALID,0,VALID,96.2533,VALID,0,VALID,20.7544,VALID,28,VALID,0.494141,
2011-08-13, 02:39:05,VALID,913.761,VALID,0,VALID,96.2456,VALID,0,VALID,20.7349,VALID,28,VALID,0.325,
2011-08-13, 02:40:05,VALID,913.758,VALID,0,VALID,96.2685,VALID,0.107441,VALID,20.7544,VALID,28,VALID,0.298438,
2011-08-13, 02:41:05,VALID,913.749,VALID,0,VALID,96.2533,VALID,0,VALID,20.7544,VALID,28,VALID,0.194531,
2011-08-13, 02:42:05,VALID,913.719,VALID,0,VALID,96.2761,VALID,0.107441,VALID,20.7934,VALID,28,VALID,0.297266,
2011-08-13, 02:43:05,VALID,913.729,VALID,0,VALID,96.2304,VALID,0,VALID,20.8129,VALID,28,VALID,0.387891,
2011-08-13, 02:44:05,VALID,913.686,VALID,0,VALID,96.2228,VALID,0,VALID,20.8145,VALID,28,VALID,0,
2011-08-13, 02:45:05,VALID,913.691,VALID,0,VALID,96.2609,VALID,0.107441,VALID,20.8129,VALID,28,VALID,0.00585938,
2011-08-13, 02:46:05,VALID,913.688,VALID,0,VALID,96.1999,VALID,0,VALID,20.8129,VALID,28,VALID,0.297656,
2011-08-13, 02:47:05,VALID,913.655,VALID,0,VALID,96.177,VALID,0,VALID,20.8129,VALID,28,VALID,0.492188,
2011-08-13, 02:48:05,VALID,913.689,VALID,0,VALID,96.1389,VALID,0,VALID,20.7934,VALID,28,VALID,0.256641,
2011-08-13, 02:49:05,VALID,913.703,VALID,0,VALID,96.1618,VALID,0,VALID,20.7934,VALID,28,VALID,0.015625,
2011-08-13, 02:50:05,VALID,913.739,VALID,0,VALID,96.1618,VALID,0,VALID,20.7934,VALID,28,VALID,0.244531,
2011-08-13, 02:51:05,VALID,913.806,VALID,0,VALID,96.0932,VALID,0,VALID,20.7528,VALID,28,VALID,0.50625,
2011-08-13, 02:52:05,VALID,913.803,VALID,0,VALID,96.0322,VALID,0,VALID,20.7349,VALID,28,VALID,1.17891,
2011-08-13, 02:53:05,VALID,913.836,VALID,0,VALID,96.0398,VALID,0,VALID,20.6959,VALID,28,VALID,0.759766,
2011-08-13, 02:54:05,VALID,913.822,VALID,0,VALID,96.0703,VALID,0,VALID,20.6764,VALID,28,VALID,0.257031,
2011-08-13, 02:55:05,VALID,913.836,VALID,0,VALID,96.0855,VALID,0,VALID,20.6764,VALID,28,VALID,0.211328,
2011-08-13, 02:56:05,VALID,913.88,VALID,0,VALID,96.1313,VALID,0,VALID,20.6959,VALID,28,VALID,0.309375,
2011-08-13, 02:57:05,VALID,913.863,VALID,0,VALID,96.1999,VALID,0,VALID,20.7365,VALID,28,VALID,0.182031,
2011-08-13, 02:58:05,VALID,913.879,VALID,0,VALID,96.2075,VALID,0,VALID,20.7154,VALID,28,VALID,0,
2011-08-13, 02:59:05,VALID,913.853,VALID,0,VALID,96.2304,VALID,0,VALID,20.7544,VALID,28,VALID,0.125391,
2011-08-13, 03:00:05,VALID,913.883,VALID,0,VALID,96.2075,VALID,0,VALID,20.7349,VALID,28,VALID,0.369922,
2011-08-13, 03:01:05,VALID,913.872,VALID,0,VALID,96.1846,VALID,0,VALID,20.6959,VALID,28,VALID,0.479297,
2011-08-13, 03:02:05,VALID,913.879,VALID,0,VALID,96.1923,VALID,0,VALID,20.6959,VALID,28,VALID,0.828516,
2011-08-13, 03:03:05,VALID,913.894,VALID,0,VALID,96.1846,VALID,0,VALID,20.6959,VALID,28,VALID,0.568359,
2011-08-13, 03:04:05,VALID,913.85,VALID,0,VALID,96.2151,VALID,0,VALID,20.717,VALID,28,VALID,0.5625,
2011-08-13, 03:05:05,VALID,913.873,VALID,0,VALID,96.238,VALID,0,VALID,20.7154,VALID,28,VALID,0.435547,
2011-08-13, 03:06:05,VALID,913.858,VALID,0,VALID,96.2228,VALID,0,VALID,20.6764,VALID,28,VALID,0.550391,
2011-08-13, 03:07:05,VALID,913.86,VALID,0,VALID,96.238,VALID,0,VALID,20.6959,VALID,28,VALID,0.0109375,
2011-08-13, 03:08:05,VALID,913.826,VALID,0,VALID,96.2837,VALID,0,VALID,20.7349,VALID,28,VALID,0.328125,
2011-08-13, 03:09:05,VALID,913.831,VALID,0,VALID,96.2456,VALID,0,VALID,20.7349,VALID,28,VALID,0.438281,
2011-08-13, 03:10:05,VALID,913.839,VALID,0,VALID,96.2609,VALID,0,VALID,20.7138,VALID,28,VALID,0.447266,
2011-08-13, 03:11:05,VALID,913.802,VALID,0,VALID,96.2533,VALID,0,VALID,20.7349,VALID,28,VALID,0.521484,
2011-08-13, 03:12:05,VALID,913.78,VALID,0,VALID,96.2609,VALID,0,VALID,20.7349,VALID,28,VALID,0.558203,
2011-08-13, 03:13:05,VALID,913.771,VALID,0,VALID,96.2533,VALID,0,VALID,20.7154,VALID,28,VALID,0.569922,
2011-08-13, 03:14:05,VALID,913.762,VALID,0.2,VALID,96.2533,VALID,0,VALID,20.7349,VALID,28,VALID,0.578125,
2011-08-13, 03:15:05,VALID,913.724,VALID,0,VALID,96.2914,VALID,0,VALID,20.7544,VALID,28,VALID,0.470313,
2011-08-13, 03:16:05,VALID,913.706,VALID,0,VALID,96.299,VALID,0,VALID,20.7544,VALID,28,VALID,0.347656,
2011-08-13, 03:17:05,VALID,913.689,VALID,0,VALID,96.2837,VALID,0,VALID,20.7349,VALID,28,VALID,0.3125,
2011-08-13, 03:18:05,VALID,913.701,VALID,0,VALID,96.2761,VALID,0,VALID,20.7349,VALID,28,VALID,1.11328,
2011-08-13, 03:19:05,VALID,913.675,VALID,0,VALID,96.2456,VALID,0,VALID,20.7349,VALID,28,VALID,0.64375,
2011-08-13, 03:20:05,VALID,913.638,VALID,0,VALID,96.2609,VALID,0,VALID,20.7154,VALID,28,VALID,0.537891,
2011-08-13, 03:21:05,VALID,913.651,VALID,0,VALID,96.2685,VALID,0,VALID,20.7154,VALID,28,VALID,0.547656,
2011-08-13, 03:22:05,VALID,913.625,VALID,0,VALID,96.2609,VALID,0,VALID,20.7154,VALID,28,VALID,0.464844,
2011-08-13, 03:23:05,VALID,913.611,VALID,0,VALID,96.2837,VALID,0,VALID,20.6943,VALID,28,VALID,0.689453,
2011-08-13, 03:24:05,VALID,913.591,VALID,0,VALID,96.299,VALID,0,VALID,20.6959,VALID,28,VALID,0.470703,
2011-08-13, 03:25:05,VALID,913.578,VALID,0,VALID,96.2837,VALID,0,VALID,20.6959,VALID,28,VALID,0.324609,
2011-08-13, 03:26:05,VALID,913.54,VALID,0,VALID,96.3295,VALID,0,VALID,20.6959,VALID,28,VALID,0.466797,
2011-08-13, 03:27:05,VALID,913.527,VALID,0,VALID,96.2761,VALID,0,VALID,20.6764,VALID,28,VALID,0.617578,
2011-08-13, 03:28:05,VALID,913.532,VALID,0,VALID,96.2761,VALID,0,VALID,20.6569,VALID,28,VALID,0.702734,
2011-08-13, 03:29:05,VALID,913.55,VALID,0,VALID,96.2685,VALID,0,VALID,20.6569,VALID,28,VALID,0.496094,
2011-08-13, 03:30:05,VALID,913.51,VALID,0,VALID,96.2761,VALID,0,VALID,20.6374,VALID,28,VALID,0.632422,
2011-08-13, 03:31:05,VALID,913.502,VALID,0,VALID,96.3371,VALID,0,VALID,20.6374,VALID,28,VALID,0.588672,
2011-08-13, 03:32:05,VALID,913.477,VALID,0,VALID,96.3219,VALID,0,VALID,20.6374,VALID,28,VALID,0.7,
2011-08-13, 03:33:05,VALID,913.471,VALID,0,VALID,96.3295,VALID,0,VALID,20.6374,VALID,28,VALID,0.998828,
2011-08-13, 03:34:05,VALID,913.47,VALID,0,VALID,96.3295,VALID,0,VALID,20.5984,VALID,28,VALID,1.03867,
2011-08-13, 03:35:05,VALID,913.471,VALID,0,VALID,96.3295,VALID,0,VALID,20.5789,VALID,28,VALID,0.639844,
2011-08-13, 03:36:05,VALID,913.465,VALID,0,VALID,96.3295,VALID,0,VALID,20.5594,VALID,28,VALID,1.19609,
2011-08-13, 03:37:05,VALID,913.443,VALID,0,VALID,96.3295,VALID,0,VALID,20.5399,VALID,28,VALID,1.17891,
2011-08-13, 03:38:05,VALID,913.456,VALID,0,VALID,96.3524,VALID,0,VALID,20.5204,VALID,102,VALID,0.840625,
2011-08-13, 03:39:05,VALID,913.423,VALID,0,VALID,96.3676,VALID,0,VALID,20.5204,VALID,102,VALID,0.445703,
2011-08-13, 03:40:05,VALID,913.418,VALID,0,VALID,96.4362,VALID,0,VALID,20.5204,VALID,131,VALID,1.08008,
2011-08-13, 03:41:05,VALID,913.386,VALID,0,VALID,96.4438,VALID,0,VALID,20.5009,VALID,110,VALID,0.977734,
2011-08-13, 03:42:05,VALID,913.374,VALID,0,VALID,96.4362,VALID,0,VALID,20.5399,VALID,134,VALID,0.682031,
2011-08-13, 03:43:05,VALID,913.349,VALID,0,VALID,96.4743,VALID,0,VALID,20.5204,VALID,150,VALID,0.473437,
2011-08-13, 03:44:05,VALID,913.342,VALID,0,VALID,96.4896,VALID,0,VALID,20.5204,VALID,150,VALID,0.957422,
2011-08-13, 03:45:05,VALID,913.3,VALID,0,VALID,96.4896,VALID,0,VALID,20.5204,VALID,150,VALID,0.671094,